�v������,���O�C��(��),���O���x(��),�Ɠx(lx),��O�J�Z���T�[(1:�~�J),����(m/s)
2023-05-01 00:00:00,13.6,78.1,2,0.0,1
2023-05-01 00:10:00,13.6,79.3,0,0.0,0
2023-05-01 00:20:00,13.2,80.1,0,0.0,1
2023-05-01 00:30:00,13,82,0,0.0,1
2023-05-01 00:40:00,12.7,82.1,0,0.0,1
2023-05-01 00:50:00,12.8,81.9,0,0.0,0.5
2023-05-01 01:00:00,12.5,82.5,0,0.0,1
2023-05-01 01:10:00,12.5,83.8,0,0.0,0
2023-05-01 01:20:00,12.1,84.6,0,0.0,0
2023-05-01 01:30:00,12,84.9,0,0.0,0
2023-05-01 01:40:00,12.2,85.2,0,0.0,0
2023-05-01 01:50:00,12.3,85.6,0,0.0,0
2023-05-01 02:00:00,11.9,86.2,0,0.0,0
2023-05-01 02:10:00,12.1,86.3,2,0.0,0
2023-05-01 02:20:00,12,86.7,0,0.0,1
2023-05-01 02:30:00,11.8,87.3,0,0.0,1
2023-05-01 02:40:00,11.8,88.2,0,0.0,1
2023-05-01 02:50:00,11.8,88.3,0,0.0,1
2023-05-01 03:00:00,11.9,88.5,0,0.0,0
2023-05-01 03:10:00,11.9,88.8,0,0.0,0
2023-05-01 03:20:00,11.7,89.4,0,0.0,0.5
2023-05-01 03:30:00,11.6,90.2,0,0.0,1
2023-05-01 03:40:00,11.6,91,0,0.0,0
2023-05-01 03:50:00,11.3,91.7,0,0.0,1
2023-05-01 04:00:00,10.9,93.2,0,0.0,1
2023-05-01 04:10:00,11.2,94.5,0,0.0,2
2023-05-01 04:20:00,11.1,94.8,0,0.0,1
2023-05-01 04:30:00,10.9,94.1,0,0.0,1
2023-05-01 04:40:00,10.9,93.8,0,0.0,1
2023-05-01 04:50:00,10.7,93.3,2,0.0,0
2023-05-01 05:00:00,10.7,92.4,4,0.0,1
2023-05-01 05:10:00,10.7,92.2,24,0.0,1
2023-05-01 05:20:00,10.8,91.4,232,0.0,1
2023-05-01 05:30:00,11,89.5,999.68,0.0,1
2023-05-01 05:40:00,11,88.4,1999.36,0.0,0
2023-05-01 05:50:00,11.1,87,3998.72,0.0,1
2023-05-01 06:00:00,11.6,83.1,5995.52,0.0,1
2023-05-01 06:10:00,12.3,79.2,8995.84,0.0,1
2023-05-01 06:20:00,12.7,76.6,11991,0.0,1
2023-05-01 06:30:00,12.9,74.3,13998.1,0.0,1
2023-05-01 06:40:00,13,71,13998.1,0.0,1
2023-05-01 06:50:00,13.3,68.6,14991.4,0.0,1
2023-05-01 07:00:00,13.8,66.6,20490.2,0.0,1
2023-05-01 07:10:00,14.4,64.4,65986.6,0.0,1
2023-05-01 07:20:00,15.1,60.2,78970.9,0.0,1
2023-05-01 07:30:00,15.9,55.9,79994.9,0.0,1
2023-05-01 07:40:00,16.4,51.1,80977.9,0.0,2
2023-05-01 07:50:00,16.9,49.8,80977.9,0.0,1
2023-05-01 08:00:00,17.5,46.7,78970.9,0.0,1
2023-05-01 08:10:00,18,44.4,77987.8,0.0,1
2023-05-01 08:20:00,18.2,43.1,75980.8,0.0,1
2023-05-01 08:30:00,18.6,41,72990.7,0.0,1
2023-05-01 08:40:00,19.1,38.7,69959.7,0.0,1
2023-05-01 08:50:00,19.3,37.8,65986.6,0.0,1
2023-05-01 09:00:00,20,38.1,61972.5,0.0,1.5
2023-05-01 09:10:00,19.1,39.9,58982.4,0.0,3.5
2023-05-01 09:20:00,19.7,37.9,55992.3,0.0,1
2023-05-01 09:30:00,20.7,34.8,52961.3,0.0,2
2023-05-01 09:40:00,20.6,31.2,50462.7,0.0,1
2023-05-01 09:50:00,21.2,29.1,47964.2,0.0,1
2023-05-01 10:00:00,20.6,31.8,44974.1,0.0,2.5
2023-05-01 10:10:00,20.6,30.8,42967,0.0,3.5
2023-05-01 10:20:00,21,31.3,40489,0.0,3
2023-05-01 10:30:00,21.3,30.9,38993.9,0.0,1.5
2023-05-01 10:40:00,21.3,29.8,36495.4,0.0,1
2023-05-01 10:50:00,22.1,30,32481.3,0.0,2
2023-05-01 11:00:00,22.6,26.9,33484.8,0.0,1
2023-05-01 11:10:00,22.6,26.9,28999.7,0.0,2
2023-05-01 11:20:00,22.7,27.6,28487.7,0.0,2.5
2023-05-01 11:30:00,22.7,28.4,29491.2,0.0,2.5
2023-05-01 11:40:00,22.9,29.7,27996.2,0.0,1
2023-05-01 11:50:00,22.4,32.8,27996.2,0.0,2
2023-05-01 12:00:00,22.1,31.7,26992.6,0.0,2
2023-05-01 12:10:00,22.9,31.4,27996.2,0.0,4
2023-05-01 12:20:00,22.9,33.4,28999.7,0.0,4
2023-05-01 12:30:00,22.6,34.1,13998.1,0.0,4.5
2023-05-01 12:40:00,22.7,33.5,29982.7,0.0,2
2023-05-01 12:50:00,22.3,32.8,23490.6,0.0,3.5
2023-05-01 13:00:00,22.9,31.6,34979.8,0.0,2
2023-05-01 13:10:00,23.2,33.7,35491.8,0.0,4
2023-05-01 13:20:00,22.9,34.7,20992,0.0,2
2023-05-01 13:30:00,23.1,33.6,19998.7,0.0,7
2023-05-01 13:40:00,21.5,41.4,37990.4,0.0,4.5
2023-05-01 13:50:00,21.9,40.8,20992,0.0,2
2023-05-01 14:00:00,22.3,39.6,17991.7,0.0,3.5
2023-05-01 14:10:00,22,42.6,31989.8,0.0,2.5
2023-05-01 14:20:00,22.5,41.6,31989.8,0.0,1
2023-05-01 14:30:00,22.4,42.3,31989.8,0.0,2.5
2023-05-01 14:40:00,22.2,43.3,31989.8,0.0,2.5
2023-05-01 14:50:00,22.6,42.1,31989.8,0.0,1
2023-05-01 15:00:00,22,44.4,31989.8,0.0,2.5
2023-05-01 15:10:00,21.8,46.4,31989.8,0.0,2
2023-05-01 15:20:00,21.3,48.6,32993.3,0.0,4
2023-05-01 15:30:00,20.7,49.2,32993.3,0.0,3.5
2023-05-01 15:40:00,20.6,46.7,32993.3,0.0,3.5
2023-05-01 15:50:00,20.6,43.9,32993.3,0.0,4
2023-05-01 16:00:00,20.5,43.4,31989.8,0.0,9.5
2023-05-01 16:10:00,20.1,45.1,31989.8,0.0,4
2023-05-01 16:20:00,20.3,43.4,30986.2,0.0,5
2023-05-01 16:30:00,19.9,45,29982.7,0.0,3.5
2023-05-01 16:40:00,19.9,44.9,28999.7,0.0,8
2023-05-01 16:50:00,19.6,44.1,27996.2,0.0,5
2023-05-01 17:00:00,19.4,43.9,25989.1,0.0,2.5
2023-05-01 17:10:00,19.7,42.6,23982.1,0.0,6.5
2023-05-01 17:20:00,19.4,43.8,22999,0.0,5
2023-05-01 17:30:00,19.3,44.4,21995.5,0.0,8
2023-05-01 17:40:00,19.3,44.8,19998.7,0.0,6.5
2023-05-01 17:50:00,19.3,44.8,16998.4,0.0,5
2023-05-01 18:00:00,19.2,46.2,14991.4,0.0,6.5
2023-05-01 18:10:00,19,44.5,12994.6,0.0,3
2023-05-01 18:20:00,18.8,41.8,8995.84,0.0,8.5
2023-05-01 18:30:00,18.7,40.6,5995.52,0.0,3
2023-05-01 18:40:00,18.3,38.5,2997.76,0.0,7
2023-05-01 18:50:00,18.2,42.5,999.68,0.0,3.5
2023-05-01 19:00:00,18,42,999.68,0.0,4
2023-05-01 19:10:00,17.9,41.9,158,0.0,4
2023-05-01 19:20:00,17.7,43,16,0.0,2.5
2023-05-01 19:30:00,17.7,42,2,0.0,3
2023-05-01 19:40:00,17.5,42.3,2,0.0,3
2023-05-01 19:50:00,17.4,43.4,2,0.0,3
2023-05-01 20:00:00,17.4,41.2,2,0.0,2
2023-05-01 20:10:00,17.3,39.6,2,0.0,2.5
2023-05-01 20:20:00,17.2,40.8,2,0.0,3
2023-05-01 20:30:00,17,40.8,2,0.0,4
2023-05-01 20:40:00,17.2,39.9,2,0.0,2.5
2023-05-01 20:50:00,17.1,38.7,0,0.0,0
2023-05-01 21:00:00,17.4,37.5,2,0.0,2
2023-05-01 21:10:00,17,37.7,0,0.0,1
2023-05-01 21:20:00,17.2,39,0,0.0,2
2023-05-01 21:30:00,17,39.5,0,0.0,2
2023-05-01 21:40:00,16.9,43.1,2,0.0,1
2023-05-01 21:50:00,17,38.7,2,0.0,1.5
2023-05-01 22:00:00,16.8,36.7,2,0.0,1
2023-05-01 22:10:00,16,41.6,0,0.0,1.5
2023-05-01 22:20:00,15.2,49.2,2,0.0,1
2023-05-01 22:30:00,15,51.3,0,0.0,1
2023-05-01 22:40:00,14.8,51.9,0,0.0,0.5
2023-05-01 22:50:00,14.4,54,0,0.0,1
2023-05-01 23:00:00,14.3,55.5,0,0.0,1
2023-05-01 23:10:00,13.9,58.2,2,0.0,1
2023-05-01 23:20:00,14.1,57.7,0,0.0,1
2023-05-01 23:30:00,13.8,56.9,2,0.0,1
2023-05-01 23:40:00,13.8,59.7,2,0.0,1
2023-05-01 23:50:00,13.4,61.5,2,0.0,1.5
2023-05-02 00:00:00,13,63.5,0,0.0,1
2023-05-02 00:10:00,12.8,64,0,0.0,1.5
2023-05-02 00:20:00,12.7,64.8,2,0.0,1
2023-05-02 00:30:00,12.5,65.7,2,0.0,1
2023-05-02 00:40:00,12.4,66.6,2,0.0,1
2023-05-02 00:50:00,12.2,65.2,2,0.0,1
2023-05-02 01:00:00,12.1,64.3,2,0.0,1.5
2023-05-02 01:10:00,12,63.4,0,0.0,1
2023-05-02 01:20:00,11.9,63.4,0,0.0,2
2023-05-02 01:30:00,11.8,62.8,0,0.0,1
2023-05-02 01:40:00,11.6,63,0,0.0,3.5
2023-05-02 01:50:00,11.5,64.2,0,0.0,2.5
2023-05-02 02:00:00,11.2,64.1,0,0.0,1
2023-05-02 02:10:00,11.4,64.5,2,0.0,1
2023-05-02 02:20:00,11.1,68,0,0.0,1
2023-05-02 02:30:00,10.9,69.5,0,0.0,2
2023-05-02 02:40:00,10.9,69.5,0,0.0,2
2023-05-02 02:50:00,10.8,69.5,0,0.0,1
2023-05-02 03:00:00,10.5,70.2,0,0.0,1
2023-05-02 03:10:00,10.6,70.8,0,0.0,1
2023-05-02 03:20:00,10.3,69.7,0,0.0,1
2023-05-02 03:30:00,10.7,69.3,0,0.0,1
2023-05-02 03:40:00,10.3,70.8,0,0.0,2
2023-05-02 03:50:00,10.2,71.1,0,0.0,1
2023-05-02 04:00:00,10.1,71.5,0,0.0,0.5
2023-05-02 04:10:00,10,71.4,0,0.0,1
2023-05-02 04:20:00,10,71.9,0,0.0,1
2023-05-02 04:30:00,9.9,72.1,0,0.0,1
2023-05-02 04:40:00,9.8,71,2,0.0,1
2023-05-02 04:50:00,9.8,70,2,0.0,1
2023-05-02 05:00:00,9.8,71.9,6,0.0,1
2023-05-02 05:10:00,9.8,71.3,60,0.0,1
2023-05-02 05:20:00,9.6,71.3,499.84,0.0,1
2023-05-02 05:30:00,9.5,72.6,999.68,0.0,1
2023-05-02 05:40:00,9.5,73.3,1999.36,0.0,1
2023-05-02 05:50:00,9.4,72.4,4999.68,0.0,2
2023-05-02 06:00:00,9.5,72.3,6999.04,0.0,1
2023-05-02 06:10:00,10.1,69.5,9999.36,0.0,1
2023-05-02 06:20:00,9.9,68.8,11991,0.0,1.5
2023-05-02 06:30:00,10.1,68.5,13998.1,0.0,1
2023-05-02 06:40:00,10.3,67.8,14991.4,0.0,1
2023-05-02 06:50:00,10.6,66.6,15994.9,0.0,1
2023-05-02 07:00:00,10.8,65.9,24494.1,0.0,1
2023-05-02 07:10:00,10.9,63.8,63979.5,0.0,1
2023-05-02 07:20:00,11.8,60.7,72990.7,0.0,1
2023-05-02 07:30:00,12.3,59.1,66969.6,0.0,1
2023-05-02 07:40:00,12.7,58.5,75980.8,0.0,0
2023-05-02 07:50:00,13.3,56.5,71475.2,0.0,1
2023-05-02 08:00:00,13.8,54.2,72990.7,0.0,1
2023-05-02 08:10:00,14.3,50.6,73973.8,0.0,1
2023-05-02 08:20:00,15.3,48.7,72990.7,0.0,1
2023-05-02 08:30:00,15.7,47.3,70983.7,0.0,1
2023-05-02 08:40:00,16.4,45.5,67993.6,0.0,1
2023-05-02 08:50:00,17.2,43.4,56975.4,0.0,1
2023-05-02 09:00:00,17.5,40.7,58982.4,0.0,1
2023-05-02 09:10:00,17.9,35.8,56975.4,0.0,1
2023-05-02 09:20:00,18.8,34.9,53985.3,0.0,1
2023-05-02 09:30:00,18.5,36.1,50995.2,0.0,1
2023-05-02 09:40:00,17.7,40.3,50462.7,0.0,2.5
2023-05-02 09:50:00,17.7,38.1,47964.2,0.0,2
2023-05-02 10:00:00,17.6,33.4,46981.1,0.0,3
2023-05-02 10:10:00,18,40.5,45998.1,0.0,2.5
2023-05-02 10:20:00,17.9,45,40980.5,0.0,3.5
2023-05-02 10:30:00,17.9,46.7,39997.4,0.0,3
2023-05-02 10:40:00,19.3,35,38481.9,0.0,1
2023-05-02 10:50:00,19.9,31.1,37990.4,0.0,2
2023-05-02 11:00:00,20.3,28.3,33996.8,0.0,3
2023-05-02 11:10:00,20.4,29.8,31989.8,0.0,2
2023-05-02 11:20:00,20.5,31.6,30986.2,0.0,3.5
2023-05-02 11:30:00,20.7,31.4,33996.8,0.0,1
2023-05-02 11:40:00,21.1,31.5,32993.3,0.0,2
2023-05-02 11:50:00,20.9,31.4,34979.8,0.0,1
2023-05-02 12:00:00,21.8,31.2,35983.4,0.0,2
2023-05-02 12:10:00,22.3,29.9,34979.8,0.0,2
2023-05-02 12:20:00,22.1,29.6,34979.8,0.0,2
2023-05-02 12:30:00,21.9,30.1,38481.9,0.0,1.5
2023-05-02 12:40:00,21.5,31.9,35983.4,0.0,2
2023-05-02 12:50:00,21.4,31.4,34488.3,0.0,2
2023-05-02 13:00:00,21.8,31.7,28487.7,0.0,4
2023-05-02 13:10:00,21.6,30.6,28999.7,0.0,2
2023-05-02 13:20:00,21.4,31.8,28999.7,0.0,2.5
2023-05-02 13:30:00,21.6,30.5,28999.7,0.0,1
2023-05-02 13:40:00,22.5,29.9,29982.7,0.0,2
2023-05-02 13:50:00,22.7,27.1,30986.2,0.0,1.5
2023-05-02 14:00:00,22.6,25.9,29982.7,0.0,3
2023-05-02 14:10:00,22.2,27.7,27996.2,0.0,1
2023-05-02 14:20:00,21.8,27.6,28999.7,0.0,2
2023-05-02 14:30:00,22,27.3,31989.8,0.0,4
2023-05-02 14:40:00,22.4,25.7,30986.2,0.0,3
2023-05-02 14:50:00,22.5,23.6,31989.8,0.0,3.5
2023-05-02 15:00:00,22.5,24.1,31989.8,0.0,2
2023-05-02 15:10:00,22.6,23.4,31989.8,0.0,2
2023-05-02 15:20:00,22.4,23.4,32993.3,0.0,2.5
2023-05-02 15:30:00,22.5,22.3,32993.3,0.0,2
2023-05-02 15:40:00,22,21,32993.3,0.0,2
2023-05-02 15:50:00,21.9,18.8,32993.3,0.0,2.5
2023-05-02 16:00:00,22.1,20.2,32993.3,0.0,3
2023-05-02 16:10:00,22.3,22.3,32993.3,0.0,2
2023-05-02 16:20:00,22,24.2,31989.8,0.0,1
2023-05-02 16:30:00,21.9,24,31989.8,0.0,2
2023-05-02 16:40:00,22.4,24,28999.7,0.0,2
2023-05-02 16:50:00,21.9,21.8,28999.7,0.0,2
2023-05-02 17:00:00,21.8,33.2,24985.6,0.0,1
2023-05-02 17:10:00,20,37,16998.4,0.0,1.5
2023-05-02 17:20:00,19.3,34,18995.2,0.0,2
2023-05-02 17:30:00,19.8,33,23982.1,0.0,1
2023-05-02 17:40:00,19.8,33.3,24985.6,0.0,3
2023-05-02 17:50:00,19.5,34.6,17991.7,0.0,3
2023-05-02 18:00:00,19.9,32.3,17991.7,0.0,2
2023-05-02 18:10:00,19.6,31,10997.8,0.0,1
2023-05-02 18:20:00,19.5,31.9,11991,0.0,1
2023-05-02 18:30:00,19.5,29.8,6999.04,0.0,1
2023-05-02 18:40:00,19.3,29.1,1999.36,0.0,1
2023-05-02 18:50:00,19.2,27.9,999.68,0.0,2
2023-05-02 19:00:00,19.3,25.1,425.92,0.0,1
2023-05-02 19:10:00,19.1,25.9,104,0.0,2
2023-05-02 19:20:00,18.9,25.6,10,0.0,0
2023-05-02 19:30:00,19.1,21.7,2,0.0,1.5
2023-05-02 19:40:00,19.1,22.4,2,0.0,0
2023-05-02 19:50:00,18.8,32.1,2,0.0,1
2023-05-02 20:00:00,18.2,38.6,2,0.0,1
2023-05-02 20:10:00,17.8,41.1,2,0.0,1
2023-05-02 20:20:00,17.3,43.2,2,0.0,2
2023-05-02 20:30:00,17.1,46.4,2,0.0,1
2023-05-02 20:40:00,16.6,48.2,2,0.0,2
2023-05-02 20:50:00,16.3,50.7,2,0.0,1
2023-05-02 21:00:00,15.9,53.9,2,0.0,2
2023-05-02 21:10:00,15.7,54.4,2,0.0,2
2023-05-02 21:20:00,15.5,55.5,2,0.0,1
2023-05-02 21:30:00,15.4,57.3,0,0.0,2
2023-05-02 21:40:00,15.4,56.8,2,0.0,3
2023-05-02 21:50:00,15.1,56.3,2,0.0,1
2023-05-02 22:00:00,14.9,57,0,0.0,2.5
2023-05-02 22:10:00,15.1,55.4,2,0.0,1
2023-05-02 22:20:00,15,55.1,2,0.0,1
2023-05-02 22:30:00,14.5,55.8,0,0.0,0.5
2023-05-02 22:40:00,14.4,55.4,2,0.0,1
2023-05-02 22:50:00,14.6,56.4,2,0.0,1
2023-05-02 23:00:00,14.2,58,0,0.0,2
2023-05-02 23:10:00,14.3,60.4,0,0.0,2
2023-05-02 23:20:00,14,60.1,0,0.0,1
2023-05-02 23:30:00,14.1,58.3,2,0.0,1
2023-05-02 23:40:00,13.7,61.3,2,0.0,3
2023-05-02 23:50:00,13.5,62.1,0,0.0,0.5
2023-05-03 00:00:00,13.2,61.5,0,0.0,1
2023-05-03 00:10:00,13,61.8,0,0.0,1
2023-05-03 00:20:00,13,63.2,0,0.0,1
2023-05-03 00:30:00,12.6,63.9,0,0.0,1
2023-05-03 00:40:00,12.8,63.9,0,0.0,1
2023-05-03 00:50:00,12.6,65,0,0.0,2
2023-05-03 01:00:00,12.5,65.6,0,0.0,2
2023-05-03 01:10:00,12.3,65.8,2,0.0,1
2023-05-03 01:20:00,12.3,65.9,2,0.0,1
2023-05-03 01:30:00,12.3,68.9,2,0.0,1
2023-05-03 01:40:00,12.1,67.5,0,0.0,1
2023-05-03 01:50:00,12,68,0,0.0,1
2023-05-03 02:00:00,12,68.4,0,0.0,1.5
2023-05-03 02:10:00,12.2,70.5,2,0.0,1
2023-05-03 02:20:00,11.9,72,0,0.0,0
2023-05-03 02:30:00,11.6,72.8,0,0.0,1
2023-05-03 02:40:00,11.5,72.8,2,0.0,1
2023-05-03 02:50:00,11.4,74.9,0,0.0,2
2023-05-03 03:00:00,11.3,76.2,0,0.0,0
2023-05-03 03:10:00,11.3,74.7,0,0.0,1
2023-05-03 03:20:00,11.3,76.5,2,0.0,1
2023-05-03 03:30:00,11,77.4,0,0.0,1
2023-05-03 03:40:00,11,75.5,0,0.0,2
2023-05-03 03:50:00,11,76.1,0,0.0,2
2023-05-03 04:00:00,10.8,77.4,0,0.0,1
2023-05-03 04:10:00,10.9,77.3,0,0.0,1
2023-05-03 04:20:00,10.8,75.4,0,0.0,1
2023-05-03 04:30:00,10.7,76,0,0.0,1
2023-05-03 04:40:00,10.8,76.4,0,0.0,1
2023-05-03 04:50:00,10.4,77.8,2,0.0,1
2023-05-03 05:00:00,10.3,78.8,4,0.0,1
2023-05-03 05:10:00,10.2,79.4,32,0.0,1
2023-05-03 05:20:00,10,79.9,499.84,0.0,1
2023-05-03 05:30:00,10,80.8,999.68,0.0,1
2023-05-03 05:40:00,10.2,80.4,2997.76,0.0,2
2023-05-03 05:50:00,10.2,79.4,4999.68,0.0,0.5
2023-05-03 06:00:00,10.6,77,5995.52,0.0,1
2023-05-03 06:10:00,10.5,76.2,8995.84,0.0,1
2023-05-03 06:20:00,10.7,75.3,11991,0.0,1
2023-05-03 06:30:00,11.1,74.4,13998.1,0.0,2
2023-05-03 06:40:00,11.2,73.9,14991.4,0.0,1
2023-05-03 06:50:00,11.7,73.2,14991.4,0.0,1
2023-05-03 07:00:00,12.1,72,18995.2,0.0,1
2023-05-03 07:10:00,12.2,69,46981.1,0.0,1
2023-05-03 07:20:00,12.5,68,65986.6,0.0,0
2023-05-03 07:30:00,12.7,68.2,83968,0.0,1
2023-05-03 07:40:00,13.4,66.5,85934.1,0.0,2
2023-05-03 07:50:00,13.8,65,83968,0.0,1
2023-05-03 08:00:00,14.5,63.1,82985,0.0,1
2023-05-03 08:10:00,15.3,59.1,80977.9,0.0,1
2023-05-03 08:20:00,16,55.3,77987.8,0.0,0
2023-05-03 08:30:00,16.7,51.6,75980.8,0.0,1
2023-05-03 08:40:00,17.3,49.6,71966.7,0.0,0
2023-05-03 08:50:00,17.7,48.5,67993.6,0.0,1
2023-05-03 09:00:00,18.4,49.4,65986.6,0.0,1
2023-05-03 09:10:00,19.4,46.5,55992.3,0.0,1
2023-05-03 09:20:00,20.2,44.9,35491.8,0.0,1
2023-05-03 09:30:00,20.5,43.3,29982.7,0.0,2
2023-05-03 09:40:00,20.8,43.1,54968.3,0.0,1
2023-05-03 09:50:00,20.9,45.9,42967,0.0,2
2023-05-03 10:00:00,21.1,45.9,45998.1,0.0,0
2023-05-03 10:10:00,21.1,44.4,43499.5,0.0,3
2023-05-03 10:20:00,21.6,45.3,38993.9,0.0,1.5
2023-05-03 10:30:00,21.8,46.5,35983.4,0.0,3
2023-05-03 10:40:00,22,45.1,35983.4,0.0,2
2023-05-03 10:50:00,22.6,43.5,26992.6,0.0,2
2023-05-03 11:00:00,21.6,56.1,33996.8,0.0,2
2023-05-03 11:10:00,21.1,58,35983.4,0.0,3
2023-05-03 11:20:00,21.5,56.4,29982.7,0.0,1.5
2023-05-03 11:30:00,21.3,54.1,27996.2,0.0,2.5
2023-05-03 11:40:00,21.6,54.7,33996.8,0.0,2
2023-05-03 11:50:00,22.4,50.2,36986.9,0.0,1
2023-05-03 12:00:00,22.9,43.8,39997.4,0.0,2
2023-05-03 12:10:00,24.8,41,37498.9,0.0,2
2023-05-03 12:20:00,25.2,42.7,41984,0.0,2.5
2023-05-03 12:30:00,23.3,46.9,33996.8,0.0,2
2023-05-03 12:40:00,24,45,42967,0.0,2
2023-05-03 12:50:00,22.2,55.2,40980.5,0.0,3
2023-05-03 13:00:00,22.2,52.5,42967,0.0,3
2023-05-03 13:10:00,22.4,53.9,40980.5,0.0,2
2023-05-03 13:20:00,22.5,53.3,40489,0.0,3
2023-05-03 13:30:00,22.7,52.5,41984,0.0,1
2023-05-03 13:40:00,23.1,50,38993.9,0.0,3
2023-05-03 13:50:00,22.8,51.2,35983.4,0.0,1
2023-05-03 14:00:00,24,46.8,32993.3,0.0,1
2023-05-03 14:10:00,25.3,37.1,31989.8,0.0,3
2023-05-03 14:20:00,24.9,38,30986.2,0.0,3
2023-05-03 14:30:00,25.4,38.1,40980.5,0.0,1
2023-05-03 14:40:00,26.1,35.9,40980.5,0.0,3.5
2023-05-03 14:50:00,25.9,35.7,38993.9,0.0,3
2023-05-03 15:00:00,25.9,35.8,41984,0.0,3.5
2023-05-03 15:10:00,25.6,36.9,38993.9,0.0,5
2023-05-03 15:20:00,25.4,38.7,37990.4,0.0,4
2023-05-03 15:30:00,24.8,40.9,29491.2,0.0,4.5
2023-05-03 15:40:00,24.7,42.2,33996.8,0.0,5
2023-05-03 15:50:00,24.1,43.8,36495.4,0.0,3
2023-05-03 16:00:00,24.1,44.5,37990.4,0.0,5
2023-05-03 16:10:00,24.5,43.8,36986.9,0.0,2
2023-05-03 16:20:00,23.7,45.9,24494.1,0.0,4.5
2023-05-03 16:30:00,23.3,47.8,23490.6,0.0,2
2023-05-03 16:40:00,23.2,49.1,38993.9,0.0,2.5
2023-05-03 16:50:00,22.8,49.7,16998.4,0.0,2
2023-05-03 17:00:00,22.5,50.9,17991.7,0.0,3
2023-05-03 17:10:00,22.7,51.1,11991,0.0,5
2023-05-03 17:20:00,22.3,51.9,9999.36,0.0,2.5
2023-05-03 17:30:00,21.8,52.6,7997.44,0.0,2
2023-05-03 17:40:00,21.5,53.7,4999.68,0.0,4
2023-05-03 17:50:00,21.4,54.8,3998.72,0.0,4
2023-05-03 18:00:00,21.3,55.5,3998.72,0.0,2
2023-05-03 18:10:00,20.9,56.7,1999.36,0.0,2.5
2023-05-03 18:20:00,21,57.8,999.68,0.0,3
2023-05-03 18:30:00,20.6,59.2,999.68,0.0,2
2023-05-03 18:40:00,20.2,60.3,999.68,0.0,2.5
2023-05-03 18:50:00,20.3,60.8,189.92,0.0,2.5
2023-05-03 19:00:00,20.3,62,82,0.0,4
2023-05-03 19:10:00,19.8,62.9,16,0.0,3
2023-05-03 19:20:00,20,63.6,2,0.0,3
2023-05-03 19:30:00,19.6,64.4,2,0.0,2.5
2023-05-03 19:40:00,19.6,64.7,2,0.0,1
2023-05-03 19:50:00,19.5,65,2,0.0,1
2023-05-03 20:00:00,19.4,65.3,2,0.0,1
2023-05-03 20:10:00,19.4,65.6,2,0.0,2
2023-05-03 20:20:00,19.4,66.3,2,0.0,2
2023-05-03 20:30:00,19.1,66.8,2,0.0,2.5
2023-05-03 20:40:00,19.1,67.7,2,0.0,3
2023-05-03 20:50:00,18.9,68.5,2,0.0,4
2023-05-03 21:00:00,18.9,68.8,2,0.0,3
2023-05-03 21:10:00,18.7,69,2,0.0,2
2023-05-03 21:20:00,18.8,70.1,2,0.0,2
2023-05-03 21:30:00,18.7,71.1,2,0.0,2
2023-05-03 21:40:00,18.6,70.8,2,0.0,1.5
2023-05-03 21:50:00,18.5,70.6,2,0.0,2.5
2023-05-03 22:00:00,18.6,70.7,2,0.0,1
2023-05-03 22:10:00,18.6,71.1,2,0.0,2
2023-05-03 22:20:00,18.6,70.9,2,0.0,3
2023-05-03 22:30:00,18.6,70.8,2,0.0,1
2023-05-03 22:40:00,18.6,70.6,2,0.0,1
2023-05-03 22:50:00,18.5,70.5,2,0.0,1.5
2023-05-03 23:00:00,18.4,70.8,2,0.0,1
2023-05-03 23:10:00,18.5,71.4,2,0.0,1
2023-05-03 23:20:00,18.2,72.3,2,0.0,4.5
2023-05-03 23:30:00,18.5,73.2,2,0.0,1
2023-05-03 23:40:00,18.2,73.9,2,0.0,2
2023-05-03 23:50:00,18.3,74.9,2,0.0,2.5
2023-05-04 00:00:00,18.4,75.4,2,0.0,2.5
2023-05-04 00:10:00,18.5,75.5,2,0.0,2
2023-05-04 00:20:00,18.2,75.2,2,0.0,2
2023-05-04 00:30:00,18.2,75.2,2,0.0,1
2023-05-04 00:40:00,18.4,74.4,2,0.0,1
2023-05-04 00:50:00,18.5,74.2,2,0.0,1
2023-05-04 01:00:00,18.3,74.3,2,0.0,1
2023-05-04 01:10:00,18.4,74.5,2,0.0,1
2023-05-04 01:20:00,18.6,74.5,2,0.0,1
2023-05-04 01:30:00,18.3,74.6,2,0.0,1
2023-05-04 01:40:00,18.4,75.5,2,0.0,1.5
2023-05-04 01:50:00,18.3,76.2,2,0.0,1
2023-05-04 02:00:00,18.2,76.3,2,0.0,1
2023-05-04 02:10:00,18.1,76.5,2,0.0,1
2023-05-04 02:20:00,18.5,76.9,2,0.0,1
2023-05-04 02:30:00,18.3,77.1,2,0.0,1
2023-05-04 02:40:00,18.3,77.3,2,0.0,1
2023-05-04 02:50:00,18.1,77.4,2,0.0,1
2023-05-04 03:00:00,18.2,78,2,0.0,1
2023-05-04 03:10:00,18.3,78.6,2,0.0,1
2023-05-04 03:20:00,18.1,78.7,0,0.0,1
2023-05-04 03:30:00,18.2,79,0,0.0,1
2023-05-04 03:40:00,18,79.3,2,0.0,2
2023-05-04 03:50:00,18,80,2,0.0,2
2023-05-04 04:00:00,17.9,80.4,2,0.0,1
2023-05-04 04:10:00,17.7,80.9,0,0.0,1.5
2023-05-04 04:20:00,17.7,81.2,0,0.0,1
2023-05-04 04:30:00,17.7,81.4,2,0.0,2
2023-05-04 04:40:00,17.6,81.8,2,0.0,1
2023-05-04 04:50:00,17.4,81.9,2,0.0,1
2023-05-04 05:00:00,17.4,82.3,2,0.0,1.5
2023-05-04 05:10:00,17.4,82.6,10,0.0,1.5
2023-05-04 05:20:00,17.4,83,54,0.0,1
2023-05-04 05:30:00,17.4,83.1,280,0.0,2
2023-05-04 05:40:00,17.4,82.7,999.68,0.0,1
2023-05-04 05:50:00,17.2,83.1,999.68,0.0,1
2023-05-04 06:00:00,17.4,83.2,999.68,0.0,1
2023-05-04 06:10:00,17.5,83.1,999.68,0.0,1
2023-05-04 06:20:00,17.7,82.9,1999.36,0.0,1
2023-05-04 06:30:00,17.6,82.6,1999.36,0.0,1
2023-05-04 06:40:00,17.6,82.6,1999.36,0.0,1
2023-05-04 06:50:00,17.7,82.4,1999.36,0.0,1
2023-05-04 07:00:00,17.6,82.4,1999.36,0.0,2
2023-05-04 07:10:00,17.9,82.4,1999.36,0.0,0
2023-05-04 07:20:00,18.1,82.3,2997.76,0.0,1
2023-05-04 07:30:00,18,82.3,2997.76,0.0,1
2023-05-04 07:40:00,18,82.2,2997.76,0.0,1
2023-05-04 07:50:00,18,82,4999.68,0.0,1.5
2023-05-04 08:00:00,18.1,82.3,7997.44,0.0,1
2023-05-04 08:10:00,18.2,82.9,9999.36,0.0,0.5
2023-05-04 08:20:00,18.3,83.2,7997.44,0.0,1
2023-05-04 08:30:00,18.5,82.7,12994.6,0.0,1
2023-05-04 08:40:00,18.8,81.9,7997.44,0.0,1
2023-05-04 08:50:00,18.9,81.5,9999.36,0.0,1
2023-05-04 09:00:00,18.8,81.4,12994.6,0.0,0.5
2023-05-04 09:10:00,19.2,80.8,18493.4,0.0,0
2023-05-04 09:20:00,19.6,79.2,39997.4,0.0,0.5
2023-05-04 09:30:00,20.5,75.8,59965.4,0.0,1
2023-05-04 09:40:00,21.8,71.9,48988.2,0.0,1
2023-05-04 09:50:00,22.2,68.9,36986.9,0.0,1
2023-05-04 10:00:00,22,69.4,46981.1,0.0,3
2023-05-04 10:10:00,21.6,71.1,20992,0.0,2
2023-05-04 10:20:00,21.5,71.7,47472.6,0.0,2
2023-05-04 10:30:00,22.1,69,39997.4,0.0,2
2023-05-04 10:40:00,22,69.6,49479.7,0.0,2
2023-05-04 10:50:00,22.3,68.3,33996.8,0.0,2
2023-05-04 11:00:00,22.3,67.8,31989.8,0.0,3
2023-05-04 11:10:00,21.9,69.6,33996.8,0.0,2
2023-05-04 11:20:00,22.2,69.2,44974.1,0.0,2
2023-05-04 11:30:00,22.4,68.2,40980.5,0.0,2.5
2023-05-04 11:40:00,22.6,67.5,28999.7,0.0,2.5
2023-05-04 11:50:00,21.7,70.5,30986.2,0.0,3
2023-05-04 12:00:00,21.6,71.6,30986.2,0.0,2
2023-05-04 12:10:00,21.6,71.8,39997.4,0.0,3
2023-05-04 12:20:00,22.2,69.8,44974.1,0.0,4
2023-05-04 12:30:00,22.8,66.9,38993.9,0.0,4
2023-05-04 12:40:00,23,66.5,26992.6,0.0,3
2023-05-04 12:50:00,22.5,67.9,18493.4,0.0,2
2023-05-04 13:00:00,21.8,70.9,19998.7,0.0,4
2023-05-04 13:10:00,21.5,72.3,23982.1,0.0,4
2023-05-04 13:20:00,21.7,70.9,28999.7,0.0,2
2023-05-04 13:30:00,22,70.3,26992.6,0.0,3
2023-05-04 13:40:00,21.7,70.6,24985.6,0.0,3
2023-05-04 13:50:00,22.1,69.6,28487.7,0.0,4
2023-05-04 14:00:00,22,69.8,24985.6,0.0,3
2023-05-04 14:10:00,21.9,69.9,20992,0.0,3
2023-05-04 14:20:00,22.1,68.7,19998.7,0.0,2
2023-05-04 14:30:00,22,68.7,17991.7,0.0,1.5
2023-05-04 14:40:00,21.9,68.2,17991.7,0.0,4
2023-05-04 14:50:00,21.9,68.3,15994.9,0.0,2
2023-05-04 15:00:00,22,68.4,13998.1,0.0,4.5
2023-05-04 15:10:00,21.8,68.8,11991,0.0,2
2023-05-04 15:20:00,21.6,69.2,11991,0.0,1.5
2023-05-04 15:30:00,21.6,68.6,12994.6,0.0,4
2023-05-04 15:40:00,21.4,68.5,12994.6,0.0,4
2023-05-04 15:50:00,21.7,68.3,11991,0.0,3.5
2023-05-04 16:00:00,21.8,68.3,9999.36,0.0,4
2023-05-04 16:10:00,21.5,68.5,6999.04,0.0,2
2023-05-04 16:20:00,21.4,68.4,5995.52,0.0,3
2023-05-04 16:30:00,21.2,68.9,5995.52,0.0,2
2023-05-04 16:40:00,21.5,68.6,6999.04,0.0,2
2023-05-04 16:50:00,21.3,68.7,7997.44,0.0,4
2023-05-04 17:00:00,21.3,69,6999.04,0.0,2
2023-05-04 17:10:00,21.2,70.1,5995.52,0.0,2
2023-05-04 17:20:00,21,71,5498.88,0.0,3
2023-05-04 17:30:00,21,71,3998.72,0.0,1.5
2023-05-04 17:40:00,20.9,71.5,3998.72,0.0,3
2023-05-04 17:50:00,20.9,71.7,2997.76,0.0,4
2023-05-04 18:00:00,20.7,72.3,1999.36,0.0,2
2023-05-04 18:10:00,20.5,72.9,1999.36,0.0,3
2023-05-04 18:20:00,20.4,73.7,999.68,0.0,2
2023-05-04 18:30:00,20.4,74,999.68,0.0,2
2023-05-04 18:40:00,20.3,74.4,999.68,0.0,2
2023-05-04 18:50:00,20.2,74.8,281.92,0.0,3
2023-05-04 19:00:00,20,75.4,68,0.0,2
2023-05-04 19:10:00,20.1,75.7,24,0.0,2
2023-05-04 19:20:00,20.2,76,4,0.0,1
2023-05-04 19:30:00,20,76.2,2,0.0,2
2023-05-04 19:40:00,19.8,76.2,2,0.0,2
2023-05-04 19:50:00,19.9,75.9,2,0.0,1.5
2023-05-04 20:00:00,19.9,75.1,2,0.0,3
2023-05-04 20:10:00,19.9,75,2,0.0,3
2023-05-04 20:20:00,20,74.6,2,0.0,3
2023-05-04 20:30:00,20.1,74.9,2,0.0,2
2023-05-04 20:40:00,20,74.9,2,0.0,3
2023-05-04 20:50:00,20,74.7,2,0.0,2
2023-05-04 21:00:00,20,74.3,2,0.0,3.5
2023-05-04 21:10:00,19.8,74.4,2,0.0,3
2023-05-04 21:20:00,20,74,2,0.0,3
2023-05-04 21:30:00,20,75,0,0.0,1
2023-05-04 21:40:00,20,75.5,2,0.0,2
2023-05-04 21:50:00,19.9,75.8,2,0.0,2
2023-05-04 22:00:00,19.7,75.9,2,0.0,2
2023-05-04 22:10:00,19.6,76.5,2,0.0,2